Stations météo

réclame
Mon MeteoGroup
Soderstjerna, Suède (2667): Température de l'air & dewpoint: 15.06.2018 19:00:00 - 21.06.2018 19:00:00 (CEST)Soderstjerna, Suède (2667): Vitesse du vent & gusts: 15.06.2018 19:00:00 - 21.06.2018 19:00:00 (CEST)Soderstjerna, Suède (2667): Direction du vent: 15.06.2018 19:00:00 - 21.06.2018 19:00:00 (CEST)Soderstjerna, Suède (2667): reduced air pressure: 15.06.2018 19:00:00 - 21.06.2018 19:00:00 (CEST)Soderstjerna, Suède (2667): visibility: 15.06.2018 19:00:00 - 21.06.2018 19:00:00 (CEST)Soderstjerna, Suède (2667): Quantités de précipitations: 15.06.2018 19:00:00 - 21.06.2018 19:00:00 (CEST)
Date & Time tt [°C] td [°C] ff [km/h] ff [knt] fx [km/h] fx [knt] dd ppp [hPa] vv [km] rr [mm]
21.06.2018 19:00:00 15,8 7,0 36 19 50 27 W 1002,7 30 0,0
21.06.2018 18:00:00 15,9 8,9 36 19 43 23 WSW 1002,4 40 0,0
21.06.2018 17:00:00 15,7 9,8 29 16 40 21 WSW 1002,8 35 0,0
21.06.2018 16:00:00 15,1 10,5 25 14 32 18 W 1003,4 30 0,0
21.06.2018 15:00:00 14,2 10,4 22 12 29 16 WSW 1003,8 45 0,1
21.06.2018 14:00:00 13,8 11,7 22 12 32 18 WSW 1004,5 17 0,5
21.06.2018 13:00:00 14,4 11,5 25 14 32 18 WSW 1004,6 21 0,1
21.06.2018 12:00:00 14,3 11,6 22 12 32 18 WSW 1004,9 40 0,0
21.06.2018 11:00:00 14,2 12,1 22 12 32 18 WSW 1005,3 15 0,9
21.06.2018 10:00:00 15,0 12,1 22 12 36 19 W 1005,5 19 0,4
21.06.2018 09:00:00 16,4 12,6 25 14 40 21 W 1005,7 35 0,0
21.06.2018 08:00:00 17,5 15,1 29 16 40 21 WSW 1005,8 25 0,0
21.06.2018 07:00:00 17,4 15,2 29 16 40 21 WSW 1006,2 29 0,0
21.06.2018 06:00:00 17,2 15,2 29 16 40 21 SW 1006,7 22 0,0
21.06.2018 05:00:00 17,1 15,1 29 16 40 21 SW 1007,5 25 0,0
21.06.2018 04:00:00 17,3 15,3 29 16 40 21 WSW 1008,1 19 0,0
21.06.2018 03:00:00 17,5 15,5 29 16 40 21 WSW 1008,5 14 0,0
21.06.2018 02:00:00 18,1 15,7 32 18 40 21 SW 1009,3 13 0,0
21.06.2018 01:00:00 18,6 15,8 29 16 40 21 WSW 1009,9 19 0,0
21.06.2018 00:00:00 19,0 16,0 29 16 43 23 WSW 1010,6 18 0,0
20.06.2018 23:00:00 19,3 15,8 32 18 47 25 SW 1011,1 21 0,0
20.06.2018 22:00:00 19,4 15,7 36 19 50 27 SW 1011,3 20 0,0
20.06.2018 21:00:00 18,8 15,5 40 21 54 29 SW 1011,6 20 0,0
20.06.2018 20:00:00 19,4 15,3 43 23 54 29 SW 1011,8 26 0,0
20.06.2018 19:00:00 19,5 15,4 43 23 58 31 SW 1012,5 30 0,0
20.06.2018 18:00:00 19,7 15,3 47 25 54 29 SW 1013,3 28 0,0
20.06.2018 17:00:00 19,6 15,3 40 21 54 29 SW 1014,3 24 0,0
20.06.2018 16:00:00 18,6 14,9 40 21 54 29 SW 1015,1 25 0,0
20.06.2018 15:00:00 18,1 13,8 36 19 47 25 SW 1016,0 23 0,0
20.06.2018 14:00:00 17,4 12,5 32 18 40 21 WSW 1016,9 24 0,0
20.06.2018 13:00:00 17,2 10,8 29 16 43 23 WSW 1017,8 30 0,0
20.06.2018 12:00:00 16,8 10,6 29 16 40 21 WSW 1018,3 30 0,0
20.06.2018 11:00:00 16,0 10,7 29 16 40 21 WSW 1018,6 22 0,0
20.06.2018 10:00:00 15,5 10,1 29 16 40 21 WSW 1018,6 29 0,0
20.06.2018 09:00:00 14,9 9,3 29 16 40 21 WSW 1018,6 26 0,0
20.06.2018 08:00:00 14,7 9,7 25 14 32 18 W 1019,0 26 0,0
20.06.2018 07:00:00 14,3 9,3 25 14 32 18 W 1019,1 26 0,0
20.06.2018 06:00:00 13,9 9,3 25 14 29 16 W 1018,7 27 0,0
20.06.2018 05:00:00 13,7 8,1 22 12 32 18 W 1018,8 30 0,0
20.06.2018 04:00:00 13,9 8,1 25 14 32 18 W 1018,4 35 0,0
20.06.2018 03:00:00 14,3 7,8 29 16 36 19 W 1018,0 30 0,0
20.06.2018 02:00:00 14,9 8,4 29 16 36 19 W 1017,9 35 0,0
20.06.2018 01:00:00 15,2 8,0 25 14 43 23 W 1017,9 35 0,0
20.06.2018 00:00:00 15,9 8,4 25 14 40 21 W 1017,7 35 0,0
19.06.2018 23:00:00 16,6 8,3 25 14 40 21 W 1017,3 40 0,0
19.06.2018 22:00:00 17,5 7,8 22 12 36 19 WNW 1016,8 40 0,0
19.06.2018 21:00:00 18,4 6,6 25 14 40 21 WNW 1016,1 40 0,0
19.06.2018 20:00:00 19,4 7,5 22 12 40 21 W 1015,8 35 0,0
19.06.2018 19:00:00 20,0 9,0 29 16 50 27 W 1015,3 35 0,0
19.06.2018 18:00:00 20,4 9,9 40 21 50 27 W 1014,5 30 0,0
19.06.2018 17:00:00 20,6 10,7 32 18 47 25 W 1014,4 29 0,0
19.06.2018 16:00:00 20,3 10,7 40 21 47 25 WSW 1014,0 35 0,0
19.06.2018 15:00:00 19,6 11,4 32 18 43 23 WSW 1014,0 30 0,0
19.06.2018 14:00:00 19,7 13,2 32 18 47 25 WSW 1014,0 29 0,0
19.06.2018 13:00:00 18,6 13,0 36 19 50 27 WSW 1014,3 30 0,0
19.06.2018 12:00:00 17,8 12,3 36 19 47 25 WSW 1014,1 29 0,0
19.06.2018 11:00:00 17,3 12,6 32 18 50 27 WSW 1014,0 35 0,0
19.06.2018 10:00:00 17,3 12,2 40 21 47 25 WSW 1013,3 35 0,0
19.06.2018 09:00:00 17,0 12,7 36 19 50 27 WSW 1012,9 30 0,0
19.06.2018 08:00:00 17,3 13,8 32 18 43 23 W 1012,9 25 0,0
19.06.2018 07:00:00 17,2 14,1 32 18 40 21 WSW 1013,1 26 0,0
19.06.2018 06:00:00 17,3 14,4 29 16 36 19 WSW 1012,7 30 0,0
19.06.2018 05:00:00 17,2 14,8 29 16 40 21 WSW 1013,0 24 0,0
19.06.2018 04:00:00 17,1 15,1 32 18 43 23 WSW 1013,4 18 0,0
19.06.2018 03:00:00 17,4 15,2 32 18 43 23 WSW 1013,5 22 0,0
19.06.2018 02:00:00 17,8 15,4 32 18 40 21 WSW 1013,9 18 0,0
19.06.2018 01:00:00 18,0 15,4 32 18 43 23 WSW 1014,4 13 0,0
19.06.2018 00:00:00 17,8 15,1 32 18 40 21 SW 1014,9 21 0,0
18.06.2018 23:00:00 17,8 14,3 29 16 43 23 SW 1015,3 28 0,0
18.06.2018 22:00:00 18,0 14,3 29 16 36 19 SW 1015,5 30 0,0
18.06.2018 21:00:00 17,9 14,0 29 16 40 21 SW 1015,4 35 0,0
18.06.2018 20:00:00 18,1 14,0 29 16 36 19 SW 1015,6 35 0,0
18.06.2018 19:00:00 18,7 12,9 29 16 43 23 WSW 1016,0 35 0,0
18.06.2018 18:00:00 18,6 13,7 32 18 43 23 WSW 1016,0 35 0,0
18.06.2018 17:00:00 18,7 12,9 36 19 43 23 SW 1016,4 35 0,0
18.06.2018 16:00:00 19,0 13,4 32 18 43 23 SW 1016,7 30 0,0
18.06.2018 15:00:00 19,5 13,7 32 18 47 25 SW 1017,0 24 0,0
18.06.2018 14:00:00 19,1 13,5 32 18 47 25 SW 1017,2 25 0,0
18.06.2018 13:00:00 19,1 12,4 29 16 40 21 SW 1017,2 30 0,0
18.06.2018 12:00:00 18,6 11,9 22 12 32 18 WSW 1017,5 30 0,0
18.06.2018 11:00:00 17,5 11,3 25 14 32 18 W 1017,3 28 0,0
18.06.2018 10:00:00 16,8 10,6 25 14 32 18 WSW 1017,2 30 0,0
18.06.2018 09:00:00 16,9 9,8 18 10 32 18 W 1016,8 35 0,0
18.06.2018 08:00:00 16,2 9,8 25 14 32 18 W 1016,9 40 0,0
18.06.2018 07:00:00 16,0 10,5 22 12 32 18 W 1016,7 40 0,0
18.06.2018 06:00:00 16,0 11,0 18 10 32 18 W 1016,3 40 0,0
18.06.2018 05:00:00 16,1 10,4 22 12 29 16 W 1016,0 45 0,0
18.06.2018 04:00:00 16,5 9,2 22 12 32 18 W 1016,0 45 0,0
18.06.2018 03:00:00 17,0 9,2 22 12 32 18 W 1015,9 45 0,0
18.06.2018 02:00:00 17,4 10,8 18 10 25 14 W 1015,7 45 0,0
18.06.2018 01:00:00 17,7 11,0 14 8 29 16 WNW 1015,3 45 0,0
18.06.2018 00:00:00 18,1 12,3 18 10 22 12 WSW 1015,1 45 0,0
17.06.2018 23:00:00 18,2 11,0 14 8 29 16 W 1014,9 45 0,0
17.06.2018 22:00:00 18,5 10,1 22 12 32 18 W 1014,6 45 0,0
17.06.2018 21:00:00 19,5 9,4 22 12 40 21 W 1014,0 45 0,0
17.06.2018 20:00:00 20,1 13,8 29 16 36 19 W 1013,1 40 0,0
17.06.2018 19:00:00 19,9 14,7 25 14 43 23 WSW 1012,7 30 0,0
17.06.2018 18:00:00 20,0 15,2 32 18 43 23 SW 1012,7 25 0,0
17.06.2018 17:00:00 20,4 15,6 32 18 40 21 SW 1012,6 24 0,0
17.06.2018 16:00:00 20,4 16,2 29 16 40 21 SW 1012,5 27 0,0
17.06.2018 15:00:00 21,4 15,2 22 12 29 16 WSW 1012,5 35 0,0
17.06.2018 14:00:00 19,8 16,4 22 12 25 14 SW 1012,5 22 0,0
17.06.2018 13:00:00 20,9 15,9 4 2 22 12 S 1011,8 23 0,0
17.06.2018 12:00:00 18,9 15,6 14 8 29 16 SW 1012,5 21 0,0
17.06.2018 11:00:00 20,4 15,4 18 10 32 18 S 1012,7 22 0,0
17.06.2018 10:00:00 20,4 15,6 18 10 29 16 SE 1012,8 28 0,0
17.06.2018 09:00:00 19,0 15,3 25 14 32 18 ESE 1013,2 30 0,0
17.06.2018 08:00:00 18,3 15,2 25 14 32 18 ESE 1013,5 35 0,0
17.06.2018 07:00:00 17,4 14,7 18 10 25 14 ENE 1014,1 30 0,0
17.06.2018 06:00:00 17,1 13,8 14 8 22 12 ENE 1014,4 35 0,0
17.06.2018 05:00:00 16,8 13,7 11 6 14 8 ENE 1015,0 40 0,0
17.06.2018 04:00:00 17,2 13,7 4 2 14 8 NNE 1015,6 35 0,1
17.06.2018 03:00:00 17,4 12,5 7 4 18 10 ESE 1015,8 30 0,0
17.06.2018 02:00:00 17,3 13,2 14 8 18 10 SE 1015,7 40 0,0
17.06.2018 01:00:00 17,1 13,0 14 8 18 10 SE 1016,1 40 0,0
17.06.2018 00:00:00 16,5 12,8 11 6 14 8 SE 1016,4 35 0,0
16.06.2018 23:00:00 16,9 12,2 11 6 14 8 SE 1016,6 40 0,0
16.06.2018 22:00:00 17,5 12,2 11 6 14 8 SE 1016,7 35 0,0
16.06.2018 21:00:00 18,0 11,3 11 6 18 10 SSE 1016,5 45 0,0
16.06.2018 20:00:00 18,7 11,0 11 6 14 8 SSE 1016,7 35 0,0
16.06.2018 19:00:00 18,8 11,8 11 6 14 8 S 1017,0 40 0,0
16.06.2018 18:00:00 19,0 11,6 11 6 22 12 SSW 1017,4 40 0,0
16.06.2018 17:00:00 19,4 12,2 18 10 22 12 SSW 1017,7 40 0,0
16.06.2018 16:00:00 19,3 11,3 18 10 25 14 S 1017,9 35 0,0
16.06.2018 15:00:00 19,4 11,4 22 12 25 14 S 1018,0 30 0,0
16.06.2018 14:00:00 21,0 10,8 14 8 25 14 SSW 1018,5 40 0,0
16.06.2018 13:00:00 20,9 10,4 18 10 25 14 SW 1018,7 30 0,0
16.06.2018 12:00:00 19,1 11,6 22 12 25 14 S 1018,6 35 0,0
16.06.2018 11:00:00 19,8 10,5 14 8 18 10 SSW 1018,6 35 0,0
16.06.2018 10:00:00 19,4 9,3 7 4 11 6 SSW 1018,6 30 0,0
16.06.2018 09:00:00 17,8 10,2 4 2 7 4 S 1018,5 35 0,0
16.06.2018 08:00:00 16,9 9,3 0 0 7 4 N 1018,6 30 0,0
16.06.2018 07:00:00 16,4 9,1 4 2 7 4 NE 1018,4 30 0,0
16.06.2018 06:00:00 14,4 8,6 4 2 11 6 NNE 1018,6 35 0,0
16.06.2018 05:00:00 14,1 8,5 4 2 18 10 N 1018,4 45 0,0
16.06.2018 04:00:00 14,2 8,2 7 4 14 8 N 1018,1 40 0,0
16.06.2018 03:00:00 14,6 7,9 7 4 14 8 NNW 1017,7 45 0,0
16.06.2018 02:00:00 15,0 6,8 7 4 14 8 NW 1017,4 45 0,0
16.06.2018 01:00:00 16,2 6,6 7 4 14 8 NW 1017,3 45 0,0
16.06.2018 00:00:00 17,2 6,1 7 4 18 10 NNW 1017,1 45 0,0
15.06.2018 23:00:00 18,1 7,8 7 4 18 10 NW 1016,9 45 0,0
15.06.2018 22:00:00 18,8 12,8 7 4 25 14 WNW 1016,5 35 0,0
15.06.2018 21:00:00 18,7 14,4 18 10 25 14 W 1015,9 27 0,0
15.06.2018 20:00:00 19,5 13,4 18 10 25 14 WSW 1015,9 30 0,0
15.06.2018 19:00:00 19,6 14,0 18 10 32 18 WSW 1015,9 30 0,0

tt = Température de l'air
td = dewpoint
ff = Vitesse du vent
fx = gusts
dd = Direction du vent
ppp = reduced air pressure
vv = visibility
rr = Quantités de précipitations

stations d'obs. à proximité